owner,sensor,date,latitude,longitude,vertical_datum,sea_water_temperature,qcFlag
BP,ioos:station:wmo:42374:1,2020-05-13T02:37:00Z,28.8662,-88.0563,4.1,24.3,11111222
BP,ioos:station:wmo:42374:1,2020-05-13T02:57:00Z,28.8662,-88.0563,4.0,24.3,11111222
BP,ioos:station:wmo:42374:1,2020-05-13T03:17:00Z,28.8662,-88.0563,4.0,24.3,11111222
BP,ioos:station:wmo:42374:1,2020-05-13T03:37:00Z,28.8662,-88.0563,4.1,24.3,11111222
BP,ioos:station:wmo:42374:1,2020-05-13T03:57:00Z,28.8662,-88.0563,4.1,24.4,11111222
BP,ioos:station:wmo:42374:1,2020-05-13T04:17:00Z,28.8662,-88.0563,4.1,24.4,11111222
BP,ioos:station:wmo:42374:1,2020-05-13T04:37:00Z,28.8662,-88.0563,3.9,24.4,11111222
BP,ioos:station:wmo:42374:1,2020-05-13T04:57:00Z,28.8662,-88.0563,3.8,24.4,11111222
BP,ioos:station:wmo:42374:1,2020-05-13T05:17:00Z,28.8662,-88.0563,3.8,24.4,11111222
BP,ioos:station:wmo:42374:1,2020-05-13T05:37:00Z,28.8662,-88.0563,4.0,24.4,11111222
BP,ioos:station:wmo:42374:1,2020-05-13T05:57:00Z,28.8662,-88.0563,4.0,24.4,11111222
BP,ioos:station:wmo:42374:1,2020-05-13T06:17:00Z,28.8662,-88.0563,3.8,24.4,11111222
BP,ioos:station:wmo:42374:1,2020-05-13T06:37:00Z,28.8662,-88.0563,4.0,24.4,11111222
BP,ioos:station:wmo:42374:1,2020-05-13T06:57:00Z,28.8662,-88.0563,3.9,24.4,11111222
BP,ioos:station:wmo:42374:1,2020-05-13T07:17:00Z,28.8662,-88.0563,3.9,24.4,11111222
BP,ioos:station:wmo:42374:1,2020-05-13T07:37:00Z,28.8662,-88.0563,3.6,24.4,11111222
BP,ioos:station:wmo:42374:1,2020-05-13T07:57:00Z,28.8662,-88.0563,3.8,24.4,11111222
BP,ioos:station:wmo:42374:1,2020-05-13T08:17:00Z,28.8662,-88.0563,3.8,24.4,11111222
BP,ioos:station:wmo:42374:1,2020-05-13T08:37:00Z,28.8662,-88.0563,4.0,24.4,11111222
BP,ioos:station:wmo:42374:1,2020-05-13T08:57:00Z,28.8662,-88.0563,4.0,24.4,11111222
BP,ioos:station:wmo:42374:1,2020-05-13T09:17:00Z,28.8662,-88.0563,3.9,24.4,11111222
BP,ioos:station:wmo:42374:1,2020-05-13T09:37:00Z,28.8662,-88.0563,3.8,24.4,11111222
BP,ioos:station:wmo:42374:1,2020-05-13T09:57:00Z,28.8662,-88.0563,3.9,24.4,11111222
BP,ioos:station:wmo:42374:1,2020-05-13T10:17:00Z,28.8662,-88.0563,3.9,24.4,11111222
BP,ioos:station:wmo:42374:1,2020-05-13T10:37:00Z,28.8662,-88.0563,4.0,24.4,11111222
BP,ioos:station:wmo:42374:1,2020-05-13T10:57:00Z,28.8662,-88.0563,3.8,24.4,11111222
BP,ioos:station:wmo:42374:1,2020-05-13T11:17:00Z,28.8662,-88.0563,4.1,24.4,11111222
BP,ioos:station:wmo:42374:1,2020-05-13T11:37:00Z,28.8662,-88.0563,4.0,24.4,11111222
BP,ioos:station:wmo:42374:1,2020-05-13T11:57:00Z,28.8662,-88.0563,4.2,24.4,11111222
BP,ioos:station:wmo:42374:1,2020-05-13T12:17:00Z,28.8662,-88.0563,4.0,24.4,11111222
BP,ioos:station:wmo:42374:1,2020-05-13T12:37:00Z,28.8662,-88.0563,4.0,24.4,11111222
BP,ioos:station:wmo:42374:1,2020-05-13T12:57:00Z,28.8662,-88.0563,4.1,24.4,11111222
BP,ioos:station:wmo:42374:1,2020-05-13T13:17:00Z,28.8662,-88.0563,4.1,24.4,11111222
BP,ioos:station:wmo:42374:1,2020-05-13T13:37:00Z,28.8662,-88.0563,4.1,24.4,11111222
BP,ioos:station:wmo:42374:1,2020-05-13T13:57:00Z,28.8662,-88.0563,4.0,24.4,11111222
BP,ioos:station:wmo:42374:1,2020-05-13T14:17:00Z,28.8662,-88.0563,4.4,24.4,11111222
BP,ioos:station:wmo:42374:1,2020-05-13T14:37:00Z,28.8662,-88.0563,4.1,24.4,11111222
BP,ioos:station:wmo:42374:1,2020-05-13T14:57:00Z,28.8662,-88.0563,4.1,24.4,11111222
BP,ioos:station:wmo:42374:1,2020-05-13T15:17:00Z,28.8662,-88.0563,4.2,24.4,11111222
BP,ioos:station:wmo:42374:1,2020-05-13T15:37:00Z,28.8662,-88.0563,4.1,24.4,11111222
BP,ioos:station:wmo:42374:1,2020-05-13T15:57:00Z,28.8662,-88.0563,4.1,24.4,11111222
BP,ioos:station:wmo:42374:1,2020-05-13T16:17:00Z,28.8662,-88.0563,3.8,24.4,11111222
BP,ioos:station:wmo:42374:1,2020-05-13T16:37:00Z,28.8662,-88.0563,4.2,24.4,11111222
BP,ioos:station:wmo:42374:1,2020-05-13T16:57:00Z,28.8662,-88.0563,4.1,24.4,11111222
BP,ioos:station:wmo:42374:1,2020-05-13T17:17:00Z,28.8662,-88.0563,3.9,24.4,11111222
BP,ioos:station:wmo:42374:1,2020-05-13T17:37:00Z,28.8662,-88.0563,4.2,24.4,11111222
BP,ioos:station:wmo:42374:1,2020-05-13T17:57:00Z,28.8662,-88.0563,4.0,24.4,11111222
BP,ioos:station:wmo:42374:1,2020-05-13T18:17:00Z,28.8662,-88.0563,3.9,24.4,11111222
BP,ioos:station:wmo:42374:1,2020-05-13T18:37:00Z,28.8662,-88.0563,4.3,24.4,11111222
BP,ioos:station:wmo:42374:1,2020-05-13T18:57:00Z,28.8662,-88.0563,3.8,24.4,11111222
BP,ioos:station:wmo:42374:1,2020-05-13T19:17:00Z,28.8662,-88.0563,3.9,24.4,11111222
BP,ioos:station:wmo:42374:1,2020-05-13T19:37:00Z,28.8662,-88.0563,3.9,24.5,11111222
BP,ioos:station:wmo:42374:1,2020-05-13T19:57:00Z,28.8662,-88.0563,3.8,24.5,11111222
BP,ioos:station:wmo:42374:1,2020-05-13T20:17:00Z,28.8662,-88.0563,3.7,24.5,11111222
BP,ioos:station:wmo:42374:1,2020-05-13T20:37:00Z,28.8662,-88.0563,3.9,24.6,11111222
BP,ioos:station:wmo:42374:1,2020-05-13T20:57:00Z,28.8662,-88.0563,3.6,24.6,11111222
BP,ioos:station:wmo:42374:1,2020-05-13T21:17:00Z,28.8662,-88.0563,3.6,24.6,11111222
BP,ioos:station:wmo:42374:1,2020-05-13T21:37:00Z,28.8662,-88.0563,3.8,24.6,11111222
BP,ioos:station:wmo:42374:1,2020-05-13T21:57:00Z,28.8662,-88.0563,3.5,24.6,11111222
BP,ioos:station:wmo:42374:1,2020-05-13T22:17:00Z,28.8662,-88.0563,3.7,24.6,11111222
BP,ioos:station:wmo:42374:1,2020-05-13T22:37:00Z,28.8662,-88.0563,3.5,24.6,11111222
BP,ioos:station:wmo:42374:1,2020-05-13T22:57:00Z,28.8662,-88.0563,3.7,24.6,11111222
BP,ioos:station:wmo:42374:1,2020-05-13T23:17:00Z,28.8662,-88.0563,3.9,24.5,11111222
BP,ioos:station:wmo:42374:1,2020-05-13T23:37:00Z,28.8662,-88.0563,4.0,24.5,11111222
BP,ioos:station:wmo:42374:1,2020-05-13T23:57:00Z,28.8662,-88.0563,3.6,24.4,11111222
BP,ioos:station:wmo:42374:1,2020-05-14T00:17:00Z,28.8662,-88.0563,3.8,24.4,11111222
BP,ioos:station:wmo:42374:1,2020-05-14T00:37:00Z,28.8662,-88.0563,3.5,24.4,11111222
BP,ioos:station:wmo:42374:1,2020-05-14T00:57:00Z,28.8662,-88.0563,3.9,24.3,11111222
BP,ioos:station:wmo:42374:1,2020-05-14T01:17:00Z,28.8662,-88.0563,4.0,24.3,11111222
BP,ioos:station:wmo:42374:1,2020-05-14T01:37:00Z,28.8662,-88.0563,3.7,24.3,11111222
BP,ioos:station:wmo:42374:1,2020-05-14T01:57:00Z,28.8662,-88.0563,3.7,24.3,11111222
BP,ioos:station:wmo:42374:1,2020-05-14T02:17:00Z,28.8662,-88.0563,3.9,24.3,11111222
BP,ioos:station:wmo:42374:1,2020-05-14T02:37:00Z,28.8662,-88.0563,4.0,24.3,11111222
BP,ioos:station:wmo:42374:1,2020-05-14T02:57:00Z,28.8662,-88.0563,4.1,24.2,11111222
BP,ioos:station:wmo:42374:1,2020-05-14T03:17:00Z,28.8662,-88.0563,3.8,24.2,11111222
BP,ioos:station:wmo:42374:1,2020-05-14T03:37:00Z,28.8662,-88.0563,4.1,24.2,11111222
BP,ioos:station:wmo:42374:1,2020-05-14T03:57:00Z,28.8662,-88.0563,3.8,24.2,11111222
BP,ioos:station:wmo:42374:1,2020-05-14T04:17:00Z,28.8662,-88.0563,4.1,24.2,11111222
BP,ioos:station:wmo:42374:1,2020-05-14T04:37:00Z,28.8662,-88.0563,4.0,24.2,11111222
BP,ioos:station:wmo:42374:1,2020-05-14T04:57:00Z,28.8662,-88.0563,4.1,24.2,11111222
BP,ioos:station:wmo:42374:1,2020-05-14T05:17:00Z,28.8662,-88.0563,4.1,24.3,11111222
BP,ioos:station:wmo:42374:1,2020-05-14T05:37:00Z,28.8662,-88.0563,3.9,24.3,11111222
BP,ioos:station:wmo:42374:1,2020-05-14T05:57:00Z,28.8662,-88.0563,3.9,24.3,11111222
BP,ioos:station:wmo:42374:1,2020-05-14T06:17:00Z,28.8662,-88.0563,4.1,24.3,11111222
BP,ioos:station:wmo:42374:1,2020-05-14T06:37:00Z,28.8662,-88.0563,3.9,24.3,11111222
BP,ioos:station:wmo:42374:1,2020-05-14T06:57:00Z,28.8662,-88.0563,3.9,24.3,11111222
BP,ioos:station:wmo:42374:1,2020-05-14T07:17:00Z,28.8662,-88.0563,3.9,24.3,11111222
BP,ioos:station:wmo:42374:1,2020-05-14T07:37:00Z,28.8662,-88.0563,3.5,24.3,11111222
BP,ioos:station:wmo:42374:1,2020-05-14T07:57:00Z,28.8662,-88.0563,4.2,24.3,11111222
BP,ioos:station:wmo:42374:1,2020-05-14T08:17:00Z,28.8662,-88.0563,4.0,24.3,11111222
BP,ioos:station:wmo:42374:1,2020-05-14T08:37:00Z,28.8662,-88.0563,4.0,24.3,11111222
BP,ioos:station:wmo:42374:1,2020-05-14T08:57:00Z,28.8662,-88.0563,4.0,24.2,11111222
BP,ioos:station:wmo:42374:1,2020-05-14T09:17:00Z,28.8662,-88.0563,4.1,24.2,11111222
BP,ioos:station:wmo:42374:1,2020-05-14T09:37:00Z,28.8662,-88.0563,4.0,24.3,11111222
BP,ioos:station:wmo:42374:1,2020-05-14T09:57:00Z,28.8662,-88.0563,4.1,24.3,11111222
BP,ioos:station:wmo:42374:1,2020-05-14T10:17:00Z,28.8662,-88.0563,4.1,24.3,11111222
BP,ioos:station:wmo:42374:1,2020-05-14T10:37:00Z,28.8662,-88.0563,4.0,24.2,11111222
BP,ioos:station:wmo:42374:1,2020-05-14T10:57:00Z,28.8662,-88.0563,4.0,24.3,11111222
BP,ioos:station:wmo:42374:1,2020-05-14T11:17:00Z,28.8662,-88.0563,3.9,24.3,11111222
BP,ioos:station:wmo:42374:1,2020-05-14T11:37:00Z,28.8662,-88.0563,4.0,24.3,11111222
BP,ioos:station:wmo:42374:1,2020-05-14T11:57:00Z,28.8662,-88.0563,4.1,24.3,11111222
BP,ioos:station:wmo:42374:1,2020-05-14T12:17:00Z,28.8662,-88.0563,4.2,24.3,11111222
BP,ioos:station:wmo:42374:1,2020-05-14T12:37:00Z,28.8662,-88.0563,4.0,24.3,11111222
BP,ioos:station:wmo:42374:1,2020-05-14T12:57:00Z,28.8662,-88.0563,3.7,24.3,11111222
BP,ioos:station:wmo:42374:1,2020-05-14T13:17:00Z,28.8662,-88.0563,4.2,24.3,11111222
BP,ioos:station:wmo:42374:1,2020-05-14T13:37:00Z,28.8662,-88.0563,4.0,24.3,11111222
BP,ioos:station:wmo:42374:1,2020-05-14T13:57:00Z,28.8662,-88.0563,4.1,24.3,11111222
BP,ioos:station:wmo:42374:1,2020-05-14T14:17:00Z,28.8662,-88.0563,3.8,24.3,11111222
BP,ioos:station:wmo:42374:1,2020-05-14T14:37:00Z,28.8662,-88.0563,3.9,24.3,11111222
BP,ioos:station:wmo:42374:1,2020-05-14T14:57:00Z,28.8662,-88.0563,4.0,24.3,11111222
BP,ioos:station:wmo:42374:1,2020-05-14T15:17:00Z,28.8662,-88.0563,4.0,24.3,11111222
BP,ioos:station:wmo:42374:1,2020-05-14T15:37:00Z,28.8662,-88.0563,4.2,24.3,11111222
BP,ioos:station:wmo:42374:1,2020-05-14T15:57:00Z,28.8662,-88.0563,3.9,24.3,11111222
BP,ioos:station:wmo:42374:1,2020-05-14T16:17:00Z,28.8662,-88.0563,4.0,24.3,11111222
BP,ioos:station:wmo:42374:1,2020-05-14T16:37:00Z,28.8662,-88.0563,3.7,24.3,11111222
BP,ioos:station:wmo:42374:1,2020-05-14T16:57:00Z,28.8662,-88.0563,4.0,24.4,11111222
BP,ioos:station:wmo:42374:1,2020-05-14T17:17:00Z,28.8662,-88.0563,4.0,24.4,11111222
BP,ioos:station:wmo:42374:1,2020-05-14T17:37:00Z,28.8662,-88.0563,3.8,24.4,11111222
BP,ioos:station:wmo:42374:1,2020-05-14T17:57:00Z,28.8662,-88.0563,3.9,24.4,11111222
BP,ioos:station:wmo:42374:1,2020-05-14T18:17:00Z,28.8662,-88.0563,4.0,24.4,11111222
BP,ioos:station:wmo:42374:1,2020-05-14T18:37:00Z,28.8662,-88.0563,3.8,24.4,11111222
BP,ioos:station:wmo:42374:1,2020-05-14T18:57:00Z,28.8662,-88.0563,3.5,24.4,11111222
BP,ioos:station:wmo:42374:1,2020-05-14T19:17:00Z,28.8662,-88.0563,3.7,24.4,11111222
BP,ioos:station:wmo:42374:1,2020-05-14T19:37:00Z,28.8662,-88.0563,4.1,24.4,11111222
BP,ioos:station:wmo:42374:1,2020-05-14T19:57:00Z,28.8662,-88.0563,3.8,24.4,11111222
BP,ioos:station:wmo:42374:1,2020-05-14T20:17:00Z,28.8662,-88.0563,3.9,24.5,11111222
BP,ioos:station:wmo:42374:1,2020-05-14T20:37:00Z,28.8662,-88.0563,3.6,24.6,11111222
BP,ioos:station:wmo:42374:1,2020-05-14T20:57:00Z,28.8662,-88.0563,3.4,24.8,11111222
BP,ioos:station:wmo:42374:1,2020-05-14T21:17:00Z,28.8662,-88.0563,3.3,24.8,11111222
BP,ioos:station:wmo:42374:1,2020-05-14T21:37:00Z,28.8662,-88.0563,3.2,24.9,11111222
BP,ioos:station:wmo:42374:1,2020-05-14T21:57:00Z,28.8662,-88.0563,3.3,24.9,11111222
BP,ioos:station:wmo:42374:1,2020-05-14T22:17:00Z,28.8662,-88.0563,2.9,24.9,11111222
BP,ioos:station:wmo:42374:1,2020-05-14T22:37:00Z,28.8662,-88.0563,2.9,25.1,11111222
BP,ioos:station:wmo:42374:1,2020-05-14T22:57:00Z,28.8662,-88.0563,2.4,25.2,11111222
BP,ioos:station:wmo:42374:1,2020-05-14T23:17:00Z,28.8662,-88.0563,2.6,25.1,11111222
BP,ioos:station:wmo:42374:1,2020-05-14T23:37:00Z,28.8662,-88.0563,2.4,25.2,11111222
BP,ioos:station:wmo:42374:1,2020-05-14T23:57:00Z,28.8662,-88.0563,1.8,25.4,11111222
BP,ioos:station:wmo:42374:1,2020-05-15T00:17:00Z,28.8662,-88.0563,1.9,25.4,11111222
BP,ioos:station:wmo:42374:1,2020-05-15T00:37:00Z,28.8662,-88.0563,1.7,25.4,11111222
BP,ioos:station:wmo:42374:1,2020-05-15T00:57:00Z,28.8662,-88.0563,1.9,25.4,11111222
BP,ioos:station:wmo:42374:1,2020-05-15T01:17:00Z,28.8662,-88.0563,1.8,25.4,11111222
BP,ioos:station:wmo:42374:1,2020-05-15T01:37:00Z,28.8662,-88.0563,2.0,25.4,11111222
BP,ioos:station:wmo:42374:1,2020-05-15T01:57:00Z,28.8662,-88.0563,2.1,25.4,11111222
BP,ioos:station:wmo:42374:1,2020-05-15T02:17:00Z,28.8662,-88.0563,1.9,25.4,11111222
BP,ioos:station:wmo:42374:1,2020-05-15T02:37:00Z,28.8662,-88.0563,2.1,25.5,11111222
BP,ioos:station:wmo:42374:1,2020-05-15T02:57:00Z,28.8662,-88.0563,1.7,25.5,11111222
BP,ioos:station:wmo:42374:1,2020-05-15T03:17:00Z,28.8662,-88.0563,1.8,25.5,11111222
BP,ioos:station:wmo:42374:1,2020-05-15T03:37:00Z,28.8662,-88.0563,1.8,25.5,11111222
BP,ioos:station:wmo:42374:1,2020-05-15T03:57:00Z,28.8662,-88.0563,1.9,25.5,11111222
BP,ioos:station:wmo:42374:1,2020-05-15T04:17:00Z,28.8662,-88.0563,1.8,25.5,11111222
BP,ioos:station:wmo:42374:1,2020-05-15T04:37:00Z,28.8662,-88.0563,1.7,25.5,11111222
BP,ioos:station:wmo:42374:1,2020-05-15T04:57:00Z,28.8662,-88.0563,1.8,25.5,11111222
BP,ioos:station:wmo:42374:1,2020-05-15T05:17:00Z,28.8662,-88.0563,1.7,25.5,11111222
BP,ioos:station:wmo:42374:1,2020-05-15T05:37:00Z,28.8662,-88.0563,1.7,25.5,11111222
BP,ioos:station:wmo:42374:1,2020-05-15T05:57:00Z,28.8662,-88.0563,2.0,25.5,11111222
BP,ioos:station:wmo:42374:1,2020-05-15T06:17:00Z,28.8662,-88.0563,1.9,25.5,11111222
BP,ioos:station:wmo:42374:1,2020-05-15T06:37:00Z,28.8662,-88.0563,1.5,25.5,11111222
BP,ioos:station:wmo:42374:1,2020-05-15T06:57:00Z,28.8662,-88.0563,2.0,25.5,11111222
BP,ioos:station:wmo:42374:1,2020-05-15T07:17:00Z,28.8662,-88.0563,1.8,25.5,11111222
BP,ioos:station:wmo:42374:1,2020-05-15T07:37:00Z,28.8662,-88.0563,1.7,25.5,11111222
BP,ioos:station:wmo:42374:1,2020-05-15T07:57:00Z,28.8662,-88.0563,1.8,25.5,11111222
BP,ioos:station:wmo:42374:1,2020-05-15T08:17:00Z,28.8662,-88.0563,1.9,25.5,11111222
BP,ioos:station:wmo:42374:1,2020-05-15T08:37:00Z,28.8662,-88.0563,1.8,25.5,11111222
BP,ioos:station:wmo:42374:1,2020-05-15T08:57:00Z,28.8662,-88.0563,1.7,25.5,11111222
BP,ioos:station:wmo:42374:1,2020-05-15T09:17:00Z,28.8662,-88.0563,1.7,25.5,11111222
BP,ioos:station:wmo:42374:1,2020-05-15T09:37:00Z,28.8662,-88.0563,1.9,25.5,11111222
BP,ioos:station:wmo:42374:1,2020-05-15T09:57:00Z,28.8662,-88.0563,2.0,25.5,11111222
BP,ioos:station:wmo:42374:1,2020-05-15T10:17:00Z,28.8662,-88.0563,1.6,25.5,11111222
BP,ioos:station:wmo:42374:1,2020-05-15T10:37:00Z,28.8662,-88.0563,1.9,25.5,11111222
BP,ioos:station:wmo:42374:1,2020-05-15T10:57:00Z,28.8662,-88.0563,1.8,25.5,11111222
BP,ioos:station:wmo:42374:1,2020-05-15T11:17:00Z,28.8662,-88.0563,1.7,25.5,11111222
BP,ioos:station:wmo:42374:1,2020-05-15T11:37:00Z,28.8662,-88.0563,2.0,25.5,11111222
BP,ioos:station:wmo:42374:1,2020-05-15T11:57:00Z,28.8662,-88.0563,2.0,25.5,11111222
BP,ioos:station:wmo:42374:1,2020-05-15T12:17:00Z,28.8662,-88.0563,1.8,25.5,11111222
BP,ioos:station:wmo:42374:1,2020-05-15T12:37:00Z,28.8662,-88.0563,1.7,25.5,11111222
BP,ioos:station:wmo:42374:1,2020-05-15T12:57:00Z,28.8662,-88.0563,1.9,25.5,11111222
BP,ioos:station:wmo:42374:1,2020-05-15T13:17:00Z,28.8662,-88.0563,2.0,25.5,11111222
BP,ioos:station:wmo:42374:1,2020-05-15T13:37:00Z,28.8662,-88.0563,1.9,25.5,11111222
BP,ioos:station:wmo:42374:1,2020-05-15T13:57:00Z,28.8662,-88.0563,1.8,25.5,11111222
BP,ioos:station:wmo:42374:1,2020-05-15T14:17:00Z,28.8662,-88.0563,1.8,25.5,11111222
BP,ioos:station:wmo:42374:1,2020-05-15T14:37:00Z,28.8662,-88.0563,2.0,25.5,11111222
BP,ioos:station:wmo:42374:1,2020-05-15T14:57:00Z,28.8662,-88.0563,1.9,25.5,11111222
BP,ioos:station:wmo:42374:1,2020-05-15T15:17:00Z,28.8662,-88.0563,1.9,25.5,11111222
BP,ioos:station:wmo:42374:1,2020-05-15T15:37:00Z,28.8662,-88.0563,2.0,25.5,11111222
BP,ioos:station:wmo:42374:1,2020-05-15T15:57:00Z,28.8662,-88.0563,1.7,25.5,11111222
BP,ioos:station:wmo:42374:1,2020-05-15T16:17:00Z,28.8662,-88.0563,1.8,25.5,11111222
BP,ioos:station:wmo:42374:1,2020-05-15T16:37:00Z,28.8662,-88.0563,1.9,25.5,11111222
BP,ioos:station:wmo:42374:1,2020-05-15T16:57:00Z,28.8662,-88.0563,1.7,25.5,11111222
BP,ioos:station:wmo:42374:1,2020-05-15T17:17:00Z,28.8662,-88.0563,1.8,25.5,11111222
BP,ioos:station:wmo:42374:1,2020-05-15T17:37:00Z,28.8662,-88.0563,1.8,25.5,11111222
BP,ioos:station:wmo:42374:1,2020-05-15T17:57:00Z,28.8662,-88.0563,2.0,25.5,11111222
BP,ioos:station:wmo:42374:1,2020-05-15T18:17:00Z,28.8662,-88.0563,1.9,25.5,11111222
BP,ioos:station:wmo:42374:1,2020-05-15T18:37:00Z,28.8662,-88.0563,1.8,25.6,11111222
BP,ioos:station:wmo:42374:1,2020-05-15T18:57:00Z,28.8662,-88.0563,1.7,25.6,11111222
BP,ioos:station:wmo:42374:1,2020-05-15T19:17:00Z,28.8662,-88.0563,1.6,25.6,11111222
BP,ioos:station:wmo:42374:1,2020-05-15T19:37:00Z,28.8662,-88.0563,1.9,25.6,11111222
BP,ioos:station:wmo:42374:1,2020-05-15T19:57:00Z,28.8662,-88.0563,2.1,25.6,11111222
BP,ioos:station:wmo:42374:1,2020-05-15T20:17:00Z,28.8662,-88.0563,1.6,25.6,11111222
BP,ioos:station:wmo:42374:1,2020-05-15T20:37:00Z,28.8662,-88.0563,1.9,25.6,11111222
BP,ioos:station:wmo:42374:1,2020-05-15T20:57:00Z,28.8662,-88.0563,1.8,25.6,11111222
BP,ioos:station:wmo:42374:1,2020-05-15T21:17:00Z,28.8662,-88.0563,1.8,25.6,11111222
BP,ioos:station:wmo:42374:1,2020-05-15T21:37:00Z,28.8662,-88.0563,1.8,25.6,11111222
BP,ioos:station:wmo:42374:1,2020-05-15T21:57:00Z,28.8662,-88.0563,1.8,25.6,11111222
BP,ioos:station:wmo:42374:1,2020-05-15T22:17:00Z,28.8662,-88.0563,1.8,25.6,11111222
BP,ioos:station:wmo:42374:1,2020-05-15T22:37:00Z,28.8662,-88.0563,1.9,25.6,11111222
BP,ioos:station:wmo:42374:1,2020-05-15T22:57:00Z,28.8662,-88.0563,1.8,25.6,11111222
BP,ioos:station:wmo:42374:1,2020-05-15T23:17:00Z,28.8662,-88.0563,1.7,25.6,11111222
BP,ioos:station:wmo:42374:1,2020-05-15T23:37:00Z,28.8662,-88.0563,1.7,25.6,11111222
BP,ioos:station:wmo:42374:1,2020-05-15T23:57:00Z,28.8662,-88.0563,1.8,25.6,11111222
BP,ioos:station:wmo:42374:1,2020-05-16T00:17:00Z,28.8662,-88.0563,1.9,25.6,11111222
BP,ioos:station:wmo:42374:1,2020-05-16T00:37:00Z,28.8662,-88.0563,1.7,25.6,11111222
BP,ioos:station:wmo:42374:1,2020-05-16T00:57:00Z,28.8662,-88.0563,1.8,25.6,11111222
BP,ioos:station:wmo:42374:1,2020-05-16T01:17:00Z,28.8662,-88.0563,1.8,25.6,11111222
BP,ioos:station:wmo:42374:1,2020-05-16T01:37:00Z,28.8662,-88.0563,1.9,25.6,11111222
BP,ioos:station:wmo:42374:1,2020-05-16T01:57:00Z,28.8662,-88.0563,1.5,25.7,11111222
BP,ioos:station:wmo:42374:1,2020-05-16T02:17:00Z,28.8662,-88.0563,1.7,25.8,11111222
BP,ioos:station:wmo:42374:1,2020-05-16T02:37:00Z,28.8662,-88.0563,1.7,25.8,11111222
BP,ioos:station:wmo:42374:1,2020-05-16T02:57:00Z,28.8662,-88.0563,1.4,25.9,11111222
BP,ioos:station:wmo:42374:1,2020-05-16T03:17:00Z,28.8662,-88.0563,1.3,25.9,11111222
BP,ioos:station:wmo:42374:1,2020-05-16T03:37:00Z,28.8662,-88.0563,1.5,25.9,11111222
BP,ioos:station:wmo:42374:1,2020-05-16T03:57:00Z,28.8662,-88.0563,1.5,25.9,11111222
BP,ioos:station:wmo:42374:1,2020-05-16T04:17:00Z,28.8662,-88.0563,1.4,25.9,11111222
BP,ioos:station:wmo:42374:1,2020-05-16T04:37:00Z,28.8662,-88.0563,1.4,26.0,11111222
BP,ioos:station:wmo:42374:1,2020-05-16T04:57:00Z,28.8662,-88.0563,1.7,26.0,11111222
BP,ioos:station:wmo:42374:1,2020-05-16T05:17:00Z,28.8662,-88.0563,1.5,26.0,11111222
BP,ioos:station:wmo:42374:1,2020-05-16T05:37:00Z,28.8662,-88.0563,1.7,26.0,11111222
BP,ioos:station:wmo:42374:1,2020-05-16T05:57:00Z,28.8662,-88.0563,1.3,26.0,11111222
BP,ioos:station:wmo:42374:1,2020-05-16T06:17:00Z,28.8662,-88.0563,1.6,26.0,11111222
BP,ioos:station:wmo:42374:1,2020-05-16T06:37:00Z,28.8662,-88.0563,1.5,26.0,11111222
BP,ioos:station:wmo:42374:1,2020-05-16T06:57:00Z,28.8662,-88.0563,1.5,26.0,11111222
BP,ioos:station:wmo:42374:1,2020-05-16T07:17:00Z,28.8662,-88.0563,1.6,26.0,11111222
BP,ioos:station:wmo:42374:1,2020-05-16T07:37:00Z,28.8662,-88.0563,1.4,26.1,11111222
BP,ioos:station:wmo:42374:1,2020-05-16T07:57:00Z,28.8662,-88.0563,1.7,26.1,11111222
BP,ioos:station:wmo:42374:1,2020-05-16T08:17:00Z,28.8662,-88.0563,1.6,26.1,11111222
BP,ioos:station:wmo:42374:1,2020-05-16T08:37:00Z,28.8662,-88.0563,1.6,26.1,11111222
BP,ioos:station:wmo:42374:1,2020-05-16T08:57:00Z,28.8662,-88.0563,1.5,26.1,11111222
BP,ioos:station:wmo:42374:1,2020-05-16T09:17:00Z,28.8662,-88.0563,1.5,26.1,11111222
BP,ioos:station:wmo:42374:1,2020-05-16T09:37:00Z,28.8662,-88.0563,1.4,26.1,11111222
BP,ioos:station:wmo:42374:1,2020-05-16T09:57:00Z,28.8662,-88.0563,1.5,26.1,11111222
BP,ioos:station:wmo:42374:1,2020-05-16T10:17:00Z,28.8662,-88.0563,1.5,26.1,11111222
BP,ioos:station:wmo:42374:1,2020-05-16T10:37:00Z,28.8662,-88.0563,1.6,26.1,11111222
BP,ioos:station:wmo:42374:1,2020-05-16T10:57:00Z,28.8662,-88.0563,1.6,26.1,11111222
BP,ioos:station:wmo:42374:1,2020-05-16T11:17:00Z,28.8662,-88.0563,1.8,26.1,11111222
BP,ioos:station:wmo:42374:1,2020-05-16T11:37:00Z,28.8662,-88.0563,1.7,26.1,11111222
BP,ioos:station:wmo:42374:1,2020-05-16T12:17:00Z,28.8662,-88.0563,1.4,26.1,11111222
BP,ioos:station:wmo:42374:1,2020-05-16T12:37:00Z,28.8662,-88.0563,1.6,26.1,11111222
BP,ioos:station:wmo:42374:1,2020-05-16T12:57:00Z,28.8662,-88.0563,1.7,26.1,11111222
BP,ioos:station:wmo:42374:1,2020-05-16T13:17:00Z,28.8662,-88.0563,1.7,26.1,11111222
BP,ioos:station:wmo:42374:1,2020-05-16T13:37:00Z,28.8662,-88.0563,1.8,26.1,11111222
BP,ioos:station:wmo:42374:1,2020-05-16T13:57:00Z,28.8662,-88.0563,1.5,26.1,11111222
BP,ioos:station:wmo:42374:1,2020-05-16T14:17:00Z,28.8662,-88.0563,1.6,26.1,11111222
BP,ioos:station:wmo:42374:1,2020-05-16T14:37:00Z,28.8662,-88.0563,1.6,26.1,11111222
BP,ioos:station:wmo:42374:1,2020-05-16T14:57:00Z,28.8662,-88.0563,1.7,26.1,11111222
BP,ioos:station:wmo:42374:1,2020-05-16T15:17:00Z,28.8662,-88.0563,1.5,26.1,11111222
BP,ioos:station:wmo:42374:1,2020-05-16T15:37:00Z,28.8662,-88.0563,1.8,26.1,11111222
BP,ioos:station:wmo:42374:1,2020-05-16T15:57:00Z,28.8662,-88.0563,1.8,26.1,11111222
BP,ioos:station:wmo:42374:1,2020-05-16T16:17:00Z,28.8662,-88.0563,1.6,26.1,11111222
BP,ioos:station:wmo:42374:1,2020-05-16T16:37:00Z,28.8662,-88.0563,1.5,26.1,11111222
BP,ioos:station:wmo:42374:1,2020-05-16T16:57:00Z,28.8662,-88.0563,1.6,26.1,11111222
BP,ioos:station:wmo:42374:1,2020-05-16T17:17:00Z,28.8662,-88.0563,1.7,26.1,11111222
BP,ioos:station:wmo:42374:1,2020-05-16T17:37:00Z,28.8662,-88.0563,1.4,26.1,11111222
BP,ioos:station:wmo:42374:1,2020-05-16T17:57:00Z,28.8662,-88.0563,1.6,26.1,11111222
BP,ioos:station:wmo:42374:1,2020-05-16T18:17:00Z,28.8662,-88.0563,1.5,26.2,11111222
BP,ioos:station:wmo:42374:1,2020-05-16T18:37:00Z,28.8662,-88.0563,1.5,26.2,11111222
BP,ioos:station:wmo:42374:1,2020-05-16T18:57:00Z,28.8662,-88.0563,1.5,26.2,11111222
BP,ioos:station:wmo:42374:1,2020-05-16T19:17:00Z,28.8662,-88.0563,1.6,26.2,11111222
BP,ioos:station:wmo:42374:1,2020-05-16T19:37:00Z,28.8662,-88.0563,1.6,26.3,11111222
BP,ioos:station:wmo:42374:1,2020-05-16T19:57:00Z,28.8662,-88.0563,1.6,26.3,11111222
BP,ioos:station:wmo:42374:1,2020-05-16T20:17:00Z,28.8662,-88.0563,1.4,26.2,11111222
BP,ioos:station:wmo:42374:1,2020-05-16T20:37:00Z,28.8662,-88.0563,1.7,26.3,11111222
BP,ioos:station:wmo:42374:1,2020-05-16T20:57:00Z,28.8662,-88.0563,1.4,26.2,11111222
BP,ioos:station:wmo:42374:1,2020-05-16T21:17:00Z,28.8662,-88.0563,1.7,26.2,11111222
BP,ioos:station:wmo:42374:1,2020-05-16T21:37:00Z,28.8662,-88.0563,1.7,26.3,11111222
BP,ioos:station:wmo:42374:1,2020-05-16T21:57:00Z,28.8662,-88.0563,1.6,26.2,11111222
BP,ioos:station:wmo:42374:1,2020-05-16T22:17:00Z,28.8662,-88.0563,1.6,26.2,11111222
BP,ioos:station:wmo:42374:1,2020-05-16T22:37:00Z,28.8662,-88.0563,1.6,26.2,11111222
BP,ioos:station:wmo:42374:1,2020-05-16T22:57:00Z,28.8662,-88.0563,1.6,26.2,11111222
BP,ioos:station:wmo:42374:1,2020-05-16T23:17:00Z,28.8662,-88.0563,1.5,26.2,11111222
BP,ioos:station:wmo:42374:1,2020-05-16T23:37:00Z,28.8662,-88.0563,1.8,26.2,11111222
BP,ioos:station:wmo:42374:1,2020-05-16T23:57:00Z,28.8662,-88.0563,1.5,26.2,11111222
BP,ioos:station:wmo:42374:1,2020-05-17T00:17:00Z,28.8662,-88.0563,1.6,26.1,11111222